Hourly Data Report for June 21, 2021

WRIGLEY A
NORTHWEST TERRITORIES
Current Station Operator: NAVCAN

63°12'35.000" N
123°26'12.000" W
149.70 m
2204005
YWY

Download Data

Hourly Data (June 2021)
Hourly Data Report for June 21, 2021
TIME
LST
Temp Definition
°C
Dew Point Definition
°C
Rel Hum Definition
%
Precip. Amount Definition
mm

Wind Dir Definition
10's deg

Wind Spd Definition
km/h
Visibility Definition
km
Stn Press Definition
kPa
Hmdx Definition


Wind Chill Definition


Weather Definition


00:00 22.7 8.3 39 LegendMM 14 13 LegendMM 98.89     LegendNANA
01:00 21.6 8.3 42 LegendMM 12 11 LegendMM 98.85     LegendNANA
02:00 19.6 8.2 47 LegendMM 14 11 LegendMM 98.82     LegendNANA
03:00 18.4 8.5 52 LegendMM 16 14 LegendMM 98.80     LegendNANA
04:00 17.8 8.6 54 LegendMM 17 11 LegendMM 98.75     LegendNANA
05:00 17.6 8.6 55 LegendMM 16 11 LegendMM 98.73     LegendNANA
06:00 17.8 8.6 55 LegendMM 15 12 LegendMM 98.74     LegendNANA
07:00 17.3 10.4 63 LegendMM 6 4 LegendMM 98.74     LegendNANA
08:00 18.2 8.9 54 LegendMM 19 4 LegendMM 98.71     LegendNANA
09:00 18.9 11.1 60 LegendMM 12 3 LegendMM 98.65     LegendNANA
10:00 19.8 9.7 52 LegendMM 12 6 LegendMM 98.62     LegendNANA
11:00 20.6 9.9 50 LegendMM 27 4 LegendMM 98.58     LegendNANA
12:00 21.3 9.3 46 LegendMM 19 4 LegendMM 98.54     LegendNANA
13:00 21.5 9.5 46 LegendMM 21 5 LegendMM 98.50     LegendNANA
14:00 22.4 9.4 43 LegendMM 21 5 LegendMM 98.45     LegendNANA
15:00 23.7 10.3 42 LegendMM 21 8 LegendMM 98.37 25   LegendNANA
16:00 23.9 9.7 40 LegendMM 12 11 LegendMM 98.35 25   LegendNANA
17:00 23.5 10.4 43 LegendMM 12 8 LegendMM 98.33 25   LegendNANA
18:00 23.3 9.8 42 LegendMM 12 4 LegendMM 98.27     LegendNANA
19:00 21.7 12.5 55 LegendMM 30 8 LegendMM 98.25     LegendNANA
20:00 18.5 12.6 68 LegendMM 31 16 LegendMM 98.22     LegendNANA
21:00 17.0 12.1 73 LegendMM 31 16 LegendMM 98.19     LegendNANA
22:00 18.3 11.7 65 LegendMM 33 8 LegendMM 98.23     LegendNANA
23:00 16.6 13.3 81 LegendMM 32 10 LegendMM 98.32     LegendNANA

Notes on Data Quality.

Legend

  • E = Estimated
  • M = Missing
  • NA = Not Available*
  • [empty] = Indicates an unobserved value
Date modified: